Location: Gniazdowice
(50.2124°N, 20.2673°E)
Time: 01:16:26
(UTC+00:00)

Cosmos 1833 Rocket - Pass Details

Date: 23 May 2024
Orbit: 831 x 839 km, 71.0° (Epoch: 18 June)

Event Time Altitude Azimuth Distance (km) Brightness Sun altitude
Exits shadow 00:08:16 - 257° (WSW) 2,608 4.9 -16.3°
Reaches altitude 10° 00:08:48 10° 260° (W) 2,442 4.8 -16.2°
Maximum altitude 00:13:30 27° 317° (NW) 1,560 4.3 -15.9°
Drops below altitude 10° 00:18:15 10° 14° (NNE) 2,456 6.4 -15.6°
Sets 00:21:05 0° 27° (NNE) 3,394 7.8 -15.4°
